KF7OVD-WX Weather Reports


time (UTC)temp
C
wind
direction
speed
KPH
gust
KPH
rain 1hr
cm
rain 24hr
cm
rain mn
cm
humidity
%
barometer
mb
20260507004515 21 58 1.6 4.8 0.00 0.00 0.00 25 1022.7
20260507004030 21 62 4.8 8.0 0.00 0.00 0.00 25 1022.7
20260507003528 21 60 4.8 6.4 0.00 0.00 0.00 26 1022.7
20260507003026 21 0.0 0.0 0.00 0.00 0.00 25 1022.7
20260507002524 21 57 1.6 3.2 0.00 0.00 0.00 26 1022.7
20260507002042 22 103 3.2 9.7 0.00 0.00 0.00 27 1022.5
20260507001540 22 32 4.8 6.4 0.00 0.00 0.00 26 1022.5
20260507001017 22 66 4.8 9.7 0.00 0.00 0.00 26 1022.4
20260507000516 22 41 1.6 4.8 0.00 0.00 0.00 25 1022.4
20260507000019 22 52 4.8 8.0 0.00 0.00 0.00 25 1022.4
20260506235517 22 45 3.2 6.4 0.00 0.00 0.00 25 1022.4
20260506235115 22 83 3.2 6.4 0.00 0.00 0.00 26 1022.4
20260506234531 22 16 3.2 6.4 0.00 0.00 0.00 26 1022.4
20260506234028 22 24 3.2 4.8 0.00 0.00 0.00 25 1022.4
20260506233525 22 69 3.2 6.4 0.00 0.00 0.00 25 1022.4
20260506233022 23 37 4.8 6.4 0.00 0.00 0.00 26 1022.4
20260506232520 23 45 3.2 4.8 0.00 0.00 0.00 26 1022.4
20260506232018 23 56 3.2 4.8 0.00 0.00 0.00 26 1022.4
20260506231537 23 33 3.2 4.8 0.00 0.00 0.00 26 1022.4
20260506231052 23 36 4.8 6.4 0.00 0.00 0.00 26 1022.4
20260506230550 23 53 3.2 4.8 0.00 0.00 0.00 27 1022.4
20260506230027 23 69 4.8 6.4 0.00 0.00 0.00 26 1022.5
20260506225524 23 23 4.8 6.4 0.00 0.00 0.00 25 1022.5
20260506225022 23 93 8.0 11.3 0.00 0.00 0.00 24 1022.5
20260506224559 23 60 4.8 6.4 0.00 0.00 0.00 25 1022.5
20260506224037 23 20 4.8 8.0 0.00 0.00 0.00 25 1022.5
20260506223531 23 337 3.2 4.8 0.00 0.00 0.00 25 1022.6
20260506223029 23 51 4.8 6.4 0.00 0.00 0.00 25 1022.6
20260506222546 23 44 4.8 6.4 0.00 0.00 0.00 25 1022.6
20260506222023 23 28 3.2 4.8 0.00 0.00 0.00 26 1022.7
20260506221521 23 10 4.8 8.0 0.00 0.00 0.00 25 1022.7
20260506221018 23 76 4.8 9.7 0.00 0.00 0.00 25 1022.7
20260506220516 23 18 4.8 8.0 0.00 0.00 0.00 27 1022.7
20260506220019 23 36 4.8 8.0 0.00 0.00 0.00 26 1022.8
20260506215537 23 86 8.0 14.5 0.00 0.00 0.00 26 1022.8
20260506215033 24 60 4.8 9.7 0.00 0.00 0.00 27 1022.8
20260506214530 24 28 3.2 3.2 0.00 0.00 0.00 27 1022.8
20260506214028 24 44 4.8 4.8 0.00 0.00 0.00 29 1022.8
20260506213525 24 28 4.8 4.8 0.00 0.00 0.00 29 1022.8
20260506213023 23 62 4.8 6.4 0.00 0.00 0.00 29 1022.8
20260506212540 24 43 3.2 4.8 0.00 0.00 0.00 29 1022.8
20260506212057 24 54 4.8 6.4 0.00 0.00 0.00 30 1022.8
20260506211515 24 58 3.2 6.4 0.00 0.00 0.00 30 1022.8
20260506211031 24 82 6.4 9.7 0.00 0.00 0.00 30 1022.8
20260506210609 24 64 4.8 6.4 0.00 0.00 0.00 30 1022.8
20260506210026 25 29 4.8 6.4 0.00 0.00 0.00 30 1022.7
20260506205523 23 41 4.8 6.4 0.00 0.00 0.00 31 1022.7
20260506205021 23 57 6.4 9.7 0.00 0.00 0.00 29 1022.7
20260506204518 23 39 4.8 8.0 0.00 0.00 0.00 30 1022.7
20260506204016 23 47 4.8 8.0 0.00 0.00 0.00 31 1022.7
20260506203531 23 57 4.8 8.0 0.00 0.00 0.00 31 1022.7
20260506203028 24 69 6.4 9.7 0.00 0.00 0.00 28 1022.7
20260506202525 23 103 6.4 11.3 0.00 0.00 0.00 30 1022.7
20260506202023 24 51 4.8 6.4 0.00 0.00 0.00 30 1022.7
20260506201521 23 74 3.2 6.4 0.00 0.00 0.00 29 1022.7
20260506201019 23 41 4.8 6.4 0.00 0.00 0.00 29 1022.7
20260506200516 23 72 4.8 8.0 0.00 0.00 0.00 31 1022.7
20260506200020 23 47 4.8 9.7 0.00 0.00 0.00 33 1022.9
20260506195518 22 67 4.8 8.0 0.00 0.00 0.00 30 1022.9
20260506195015 23 51 4.8 6.4 0.00 0.00 0.00 31 1022.9
20260506194551 23 36 4.8 8.0 0.00 0.00 0.00 31 1022.8
20260506194028 22 47 3.2 6.4 0.00 0.00 0.00 34 1022.8
20260506193526 22 63 6.4 8.0 0.00 0.00 0.00 34 1022.8
20260506193024 23 55 8.0 12.9 0.00 0.00 0.00 34 1022.8
20260506192521 22 37 3.2 4.8 0.00 0.00 0.00 36 1022.8
20260506192019 22 91 8.0 12.9 0.00 0.00 0.00 34 1022.8
20260506191516 22 82 9.7 12.9 0.00 0.00 0.00 36 1022.8
20260506191033 22 59 8.0 12.9 0.00 0.00 0.00 37 1022.8
20260506190530 21 63 4.8 6.4 0.00 0.00 0.00 37 1022.8
20260506190027 22 65 3.2 4.8 0.00 0.00 0.00 36 1022.9
20260506185545 21 63 4.8 6.4 0.00 0.00 0.00 38 1022.9
20260506185043 22 87 8.0 12.9 0.00 0.00 0.00 37 1022.9
20260506184520 21 23 4.8 8.0 0.00 0.00 0.00 38 1022.9
20260506184018 23 42 4.8 4.8 0.00 0.00 0.00 37 1022.9
20260506183516 22 57 3.2 4.8 0.00 0.00 0.00 37 1023.1
20260506183031 22 87 6.4 9.7 0.00 0.00 0.00 37 1023.1
20260506182529 22 39 6.4 9.7 0.00 0.00 0.00 38 1023.0
20260506182027 22 90 4.8 8.0 0.00 0.00 0.00 37 1022.9
20260506181525 22 39 6.4 6.4 0.00 0.00 0.00 38 1022.9
20260506181023 22 43 4.8 8.0 0.00 0.00 0.00 38 1022.8
20260506180520 22 28 3.2 4.8 0.00 0.00 0.00 38 1022.8
20260506180018 22 27 3.2 4.8 0.00 0.00 0.00 38 1022.7
20260506175521 21 46 4.8 9.7 0.00 0.00 0.00 38 1022.7
20260506175018 21 61 3.2 8.0 0.00 0.00 0.00 38 1022.7
20260506174516 21 35 4.8 9.7 0.00 0.00 0.00 38 1022.6
20260506174032 21 97 12.9 16.1 0.00 0.00 0.00 37 1022.6
20260506173530 21 30 3.2 4.8 0.00 0.00 0.00 39 1022.5
20260506173028 21 82 9.7 11.3 0.00 0.00 0.00 38 1022.5
20260506172525 21 89 4.8 8.0 0.00 0.00 0.00 39 1022.4
20260506172024 21 5 4.8 6.4 0.00 0.00 0.00 39 1022.4
20260506171521 20 77 4.8 8.0 0.00 0.00 0.00 39 1022.4
20260506171019 20 81 3.2 8.0 0.00 0.00 0.00 40 1022.5
20260506170516 20 38 6.4 9.7 0.00 0.00 0.00 40 1022.5
20260506170053 20 68 3.2 9.7 0.00 0.00 0.00 40 1022.3
20260506165530 20 24 3.2 6.4 0.00 0.00 0.00 40 1022.2
20260506165027 20 44 4.8 8.0 0.00 0.00 0.00 41 1022.2
20260506164545 19 65 4.8 9.7 0.00 0.00 0.00 41 1022.2
20260506164042 20 87 6.4 8.0 0.00 0.00 0.00 40 1022.2
20260506163520 20 57 3.2 6.4 0.00 0.00 0.00 40 1022.1
20260506163018 19 82 6.4 9.7 0.00 0.00 0.00 41 1022.1
20260506162522 18 351 3.2 4.8 0.00 0.00 0.00 42 1022.1
20260506162029 18 91 1.6 4.8 0.00 0.00 0.00 43 1022.0
20260506161527 18 113 3.2 6.4 0.00 0.00 0.00 43 1022.0
20260506161025 18 23 0.0 3.2 0.00 0.00 0.00 42 1022.0
20260506160522 17 105 3.2 4.8 0.00 0.00 0.00 43 1022.0
20260506160020 18 79 3.2 6.4 0.00 0.00 0.00 43 1022.0
20260506155517 18 23 1.6 3.2 0.00 0.00 0.00 43 1022.0
20260506155015 17 90 1.6 4.8 0.00 0.00 0.00 46 1022.0
20260506154519 17 73 4.8 6.4 0.00 0.00 0.00 45 1021.9
20260506154017 16 97 3.2 4.8 0.00 0.00 0.00 46 1021.9
20260506153533 16 100 3.2 6.4 0.00 0.00 0.00 45 1021.8
20260506153030 16 92 1.6 3.2 0.00 0.00 0.00 46 1021.8
20260506152528 16 104 3.2 4.8 0.00 0.00 0.00 47 1021.8
20260506152026 14 158 1.6 3.2 0.00 0.00 0.00 48 1021.8
20260506151523 15 104 3.2 4.8 0.00 0.00 0.00 47 1021.8
20260506151021 15 113 0.0 3.2 0.00 0.00 0.00 48 1021.6
20260506150559 14 76 0.0 1.6 0.00 0.00 0.00 49 1021.6
20260506150016 13 0.0 0.0 0.00 0.00 0.00 49 1021.6
20260506145532 12 0.0 0.0 0.00 0.00 0.00 52 1021.6
20260506145030 12 0.0 0.0 0.00 0.00 0.00 53 1021.6
20260506144528 10 0.0 0.0 0.00 0.00 0.00 56 1021.4
20260506144025 9 0.0 0.0 0.00 0.00 0.00 59 1021.4
20260506143543 8 0.0 0.0 0.00 0.00 0.00 59 1021.4
20260506143021 8 0.0 0.0 0.00 0.00 0.00 59 1021.4
20260506142519 8 0.0 0.0 0.00 0.00 0.00 60 1021.3
20260506142017 7 0.0 0.0 0.00 0.00 0.00 61 1021.2
20260506141532 7 0.0 0.0 0.00 0.00 0.00 61 1021.2
20260506141030 7 0.0 0.0 0.00 0.00 0.00 61 1021.0
20260506140527 7 0.0 0.0 0.00 0.00 0.00 62 1021.0
20260506140025 6 0.0 0.0 0.00 0.00 0.00 64 1020.9
20260506135523 5 0.0 0.0 0.00 0.00 0.00 65 1020.8
20260506135040 5 0.0 0.0 0.00 0.00 0.00 66 1020.8
20260506134518 3 0.0 0.0 0.00 0.00 0.00 73 1020.8
20260506134016 2 0.0 0.0 0.00 0.00 0.00 74 1020.8
20260506133520 2 0.0 0.0 0.00 0.00 0.00 75 1020.5
20260506133038 1 0.0 0.0 0.00 0.00 0.00 75 1020.5
20260506132516 1 0.0 0.0 0.00 0.00 0.00 75 1020.4
20260506132032 1 0.0 0.0 0.00 0.00 0.00 75 1020.4
20260506131530 1 0.0 0.0 0.00 0.00 0.00 75 1020.4
20260506131108 1 0.0 0.0 0.00 0.00 0.00 75 1020.2
20260506130526 1 0.0 0.0 0.00 0.00 0.00 75 1020.2
20260506130024 1 0.0 0.0 0.00 0.00 0.00 75 1020.0
20260506125522 1 0.0 0.0 0.00 0.00 0.00 74 1020.0
20260506125019 1 0.0 0.0 0.00 0.00 0.00 74 1020.0
20260506124517 1 0.0 0.0 0.00 0.00 0.00 74 1019.6
20260506124053 1 0.0 0.0 0.00 0.00 0.00 74 1019.6
20260506123532 1 0.0 0.0 0.00 0.00 0.00 74 1019.6
20260506123028 1 0.0 0.0 0.00 0.00 0.00 73 1019.6
20260506122526 1 0.0 0.0 0.00 0.00 0.00 72 1019.5
20260506122024 1 45 0.0 1.6 0.00 0.00 0.00 71 1019.4
20260506121522 2 0.0 0.0 0.00 0.00 0.00 72 1019.4
20260506121020 2 0.0 0.0 0.00 0.00 0.00 71 1019.3
20260506120518 2 0.0 0.0 0.00 0.00 0.00 71 1019.3
20260506120016 2 0.0 0.0 0.00 0.00 0.00 70 1019.3
20260506115551 2 0.0 0.0 0.00 0.00 0.00 70 1019.3
20260506115030 2 0.0 0.0 0.00 0.00 0.00 69 1019.3
20260506114528 2 0.0 0.0 0.00 0.00 0.00 69 1019.2
20260506114025 3 0.0 0.0 0.00 0.00 0.00 69 1019.2
20260506113523 3 0.0 0.0 0.00 0.00 0.00 70 1019.2
20260506113021 3 0.0 0.0 0.00 0.00 0.00 70 1019.2
20260506112519 3 0.0 0.0 0.00 0.00 0.00 70 1019.2
20260506112017 3 0.0 0.0 0.00 0.00 0.00 70 1019.1
20260506111520 3 0.0 0.0 0.00 0.00 0.00 70 1019.1
20260506111018 3 0.0 0.0 0.00 0.00 0.00 69 1019.1
20260506110517 3 0.0 0.0 0.00 0.00 0.00 69 1019.1
20260506110030 3 0.0 0.0 0.00 0.00 0.00 69 1018.8
20260506105528 4 0.0 0.0 0.00 0.00 0.00 67 1018.8
20260506105027 4 0.0 0.0 0.00 0.00 0.00 66 1018.8
20260506104524 4 0.0 0.0 0.00 0.00 0.00 66 1018.7
20260506104022 4 0.0 0.0 0.00 0.00 0.00 66 1018.7
20260506103520 5 0.0 0.0 0.00 0.00 0.00 64 1018.7
20260506103017 5 0.0 0.0 0.00 0.00 0.00 64 1018.7
20260506102515 5 113 0.0 3.2 0.00 0.00 0.00 64 1018.7
20260506102031 5 0.0 0.0 0.00 0.00 0.00 63 1018.6
20260506101529 5 0.0 0.0 0.00 0.00 0.00 63 1018.6
20260506101047 5 0.0 0.0 0.00 0.00 0.00 62 1018.3
20260506100525 5 0.0 0.0 0.00 0.00 0.00 62 1018.3
20260506095521 5 180 0.0 1.6 0.00 0.00 0.00 60 1018.3
20260506095019 5 0.0 0.0 0.00 0.00 0.00 59 1018.3
20260506094517 6 0.0 0.0 0.00 0.00 0.00 58 1018.3
20260506094015 6 0.0 0.0 0.00 0.00 0.00 57 1018.3
20260506093530 6 0.0 0.0 0.00 0.00 0.00 57 1018.0
20260506093028 6 0.0 0.0 0.00 0.00 0.00 56 1018.0
20260506092526 6 0.0 0.0 0.00 0.00 0.00 56 1018.1
20260506092024 7 0.0 0.0 0.00 0.00 0.00 56 1018.1
20260506091522 7 118 1.6 4.8 0.00 0.00 0.00 55 1018.1
20260506091020 7 124 0.0 1.6 0.00 0.00 0.00 54 1018.0
20260506090537 7 0.0 0.0 0.00 0.00 0.00 53 1018.0
20260506090015 7 0.0 0.0 0.00 0.00 0.00 53 1017.9
20260506085520 8 0.0 0.0 0.00 0.00 0.00 51 1017.9
20260506085018 8 180 0.0 1.6 0.00 0.00 0.00 51 1017.9
20260506084515 8 217 1.6 4.8 0.00 0.00 0.00 51 1017.9
20260506084032 8 128 3.2 4.8 0.00 0.00 0.00 50 1017.9
20260506083530 8 142 1.6 4.8 0.00 0.00 0.00 50 1017.8
20260506083028 8 254 3.2 4.8 0.00 0.00 0.00 50 1017.8
20260506082526 8 0.0 0.0 0.00 0.00 0.00 50 1017.9
20260506082024 8 262 1.6 6.4 0.00 0.00 0.00 49 1017.9
20260506081521 8 311 1.6 3.2 0.00 0.00 0.00 48 1017.9
20260506081020 9 203 0.0 6.4 0.00 0.00 0.00 47 1017.7
20260506080518 9 0.0 0.0 0.00 0.00 0.00 47 1017.7
20260506073523 9 283 3.2 6.4 0.00 0.00 0.00 47 1017.5
20260506073041 9 0.0 0.0 0.00 0.00 0.00 46 1017.5
20260506072520 10 0.0 0.0 0.00 0.00 0.00 46 1017.5
20260506072017 10 0.0 0.0 0.00 0.00 0.00 45 1017.4
20260506071516 10 225 1.6 3.2 0.00 0.00 0.00 44 1017.4
20260506071051 10 229 1.6 4.8 0.00 0.00 0.00 43 1017.5
20260506070529 10 220 3.2 6.4 0.00 0.00 0.00 43 1017.5
20260506062039 11 215 4.8 9.7 0.00 0.00 0.00 43 1017.2
20260506061538 11 248 4.8 4.8 0.00 0.00 0.00 43 1017.2
20260506061015 11 238 3.2 6.4 0.00 0.00 0.00 43 1016.9
20260506060532 11 221 4.8 6.4 0.00 0.00 0.00 43 1016.9
20260506051024 11 218 3.2 6.4 0.00 0.00 0.00 40 1016.9
20260506050521 11 217 1.6 8.0 0.00 0.00 0.00 40 1016.9
20260506045030 10 254 0.0 3.2 0.00 0.00 0.00 42 1016.9
20260506044527 10 225 0.0 4.8 0.00 0.00 0.00 42 1016.7
20260506044024 10 270 0.0 1.6 0.00 0.00 0.00 43 1016.7
20260506043522 10 225 0.0 1.6 0.00 0.00 0.00 43 1016.6
20260506043020 10 270 1.6 3.2 0.00 0.00 0.00 43 1016.6
20260506042537 10 225 1.6 3.2 0.00 0.00 0.00 43 1016.6
20260506042020 10 203 0.0 1.6 0.00 0.00 0.00 44 1016.3
20260506041518 10 0.0 0.0 0.00 0.00 0.00 45 1016.3
20260506041016 10 0.0 0.0 0.00 0.00 0.00 45 1016.3
20260506040611 11 203 0.0 3.2 0.00 0.00 0.00 46 1016.3
20260506040031 11 0.0 0.0 0.00 0.00 0.00 45 1016.1
20260506035525 11 0.0 0.0 0.00 0.00 0.00 43 1016.1
20260506035043 11 203 0.0 3.2 0.00 0.00 0.00 43 1016.1
20260506034521 11 0.0 0.0 0.00 0.00 0.00 42 1015.9
20260506034018 12 270 0.0 4.8 0.00 0.00 0.00 42 1015.9
20260506033515 12 0.0 0.0 0.00 0.00 0.00 41 1015.7
20260506033052 12 270 0.0 3.2 0.00 0.00 0.00 40 1015.7
20260506032529 12 246 3.2 4.8 0.00 0.00 0.00 40 1015.6
20260506032027 12 234 1.6 3.2 0.00 0.00 0.00 40 1015.5
20260506031544 13 180 1.6 4.8 0.00 0.00 0.00 40 1015.5
20260506031021 13 225 0.0 4.8 0.00 0.00 0.00 40 1015.3
20260506030519 13 225 0.0 3.2 0.00 0.00 0.00 40 1015.3
20260506030016 13 0.0 0.0 0.00 0.00 0.00 40 1015.2
20260506025531 13 224 4.8 6.4 0.00 0.00 0.00 40 1015.2
20260506025029 13 270 3.2 6.4 0.00 0.00 0.00 40 1015.2
20260506024527 13 268 1.6 6.4 0.00 0.00 0.00 39 1015.0
20260506024023 13 286 3.2 4.8 0.00 0.00 0.00 39 1015.0
20260506023520 13 264 6.4 8.0 0.00 0.00 0.00 39 1014.9
20260506023018 14 264 3.2 4.8 0.00 0.00 0.00 39 1014.9
20260506022515 14 282 3.2 8.0 0.00 0.00 0.00 39 1014.8
20260506022019 14 293 4.8 8.0 0.00 0.00 0.00 38 1014.7
20260506021517 15 285 8.0 11.3 0.00 0.00 0.00 37 1014.7
20260506021033 15 275 1.6 3.2 0.00 0.00 0.00 36 1014.4
20260506020530 15 261 3.2 6.4 0.00 0.00 0.00 36 1014.4
20260506020028 15 188 8.0 9.7 0.00 0.00 0.00 35 1014.3
20260506015525 15 235 4.8 8.0 0.00 0.00 0.00 35 1014.3
20260506015023 15 230 6.4 11.3 0.00 0.00 0.00 35 1014.3
20260506014519 15 235 8.0 11.3 0.00 0.00 0.00 34 1014.0
20260506014017 15 245 4.8 8.0 0.00 0.00 0.00 34 1014.0
20260506013515 15 205 6.4 9.7 0.00 0.00 0.00 34 1014.0
20260506013031 16 189 6.4 9.7 0.00 0.00 0.00 34 1014.0
20260506012549 15 196 6.4 8.0 0.00 0.00 0.00 34 1014.0
20260506012107 16 200 4.8 8.0 0.00 0.00 0.00 34 1013.9
20260506011525 16 219 3.2 6.4 0.00 0.00 0.00 34 1013.9
20260506011022 16 186 4.8 11.3 0.00 0.00 0.00 33 1013.7
20260506010540 16 196 4.8 9.7 0.00 0.00 0.00 33 1013.7
20260506010017 16 205 4.8 11.3 0.00 0.00 0.00 33 1013.6
20260506005515 16 236 8.0 9.7 0.00 0.00 0.00 32 1013.6
20260506005029 16 217 8.0 12.9 0.00 0.00 0.00 32 1013.6